Location: 22
(39.7117°N, 89.5929°W)
Time: 19:33:50
(UTC-05:00)

Vanguard 3 - Pass Details

Date: 06 February 2023
Orbit: 508 x 3249 km, 33.4° (Epoch: 30 March)

Event Time Altitude Azimuth Distance (km) Brightness Sun altitude
Rises 15:44:44 0° 195° (SSW) 3,173 11.1 16.0°
Reaches altitude 10° 15:47:46 10° 173° (S) 2,565 10.2 15.5°
Maximum altitude 15:51:27 16° 135° (SE) 2,546 9.7 14.9°
Drops below altitude 10° 15:56:18 10° 101° (E) 3,559 10.1 14.1°
Sets 16:01:45 0° 84° (E) 5,171 10.7 13.3°
